Regional Weather Roundup
Issued by NWS Goodland, KS

Home | Current Version | Previous Version | Text Only | Print | Product List | Glossary Off
Versions: 1 2 3 4 5 6 7 8 9 10 11 12 13 14 15 16 17 18 19 20 21 22 23 24 25 26 27 28 29 30 31 32 33 34 35 36 37 38 39 40 41 42 43 44 45 46 47 48 49 50

000
ASUS43 KGLD 251859
RWRGLD

GOODLAND FORECAST AREA HOURLY WEATHER ROUNDUP
NATIONAL WEATHER SERVICE GOODLAND KS
100 PM MDT SAT MAR 25 2017

...OFFICIAL OBSERVATIONS...

CITY           SKY/WX    TMP DP  RH WIND       PRES   REMARKS
GOODLAND KS    SUNNY     55  28  35 N6        29.99F
HILL CITY KS   CLOUDY    49  41  74 N12       29.99F
IMPERIAL NEB   SUNNY     56  27  32 CALM      29.99F
MCCOOK NEB     SUNNY     59  34  39 VRB5      29.98F
AKRON CO       SUNNY     56  29  35 S8        29.98F
BURLINGTON CO  SUNNY     54  34  46 S6        30.00F
LIMON CO       CLOUDY    58  30  34 S8        29.98F
$$

...UNOFFICIAL OBSERVATIONS...

CITY           SKY/WX    TMP DP  RH WIND       PRES   REMARKS
LENORA KS        N/A     49  32  52 CALM        N/A
NORTON KS      CLOUDY    50  39  66 NE5       29.98F
SHARON SPRINGS   N/A     57  27  31 N5G12       N/A
TRENTON NEB      N/A     56  32  40 NW5         N/A
YUMA CO        FAIR      54  28  37 CALM      29.99F
$$




USA.gov is the U.S. government's official web portal to all federal, state and local government web resources and services.